Annette Island, AK

4:44 AM AKDT on September 22, 2017 (GMT -0800)
Annette Island

Weather History for PANT - December, 2012

Change the Weather History Date:

Sunday, December 23, 2012

  Actual Average Record
Temperature  
Mean Temperature 28 °F 37 °F  
Max Temperature 33 °F 41 °F 54 °F (1999)
Min Temperature 23 °F 33 °F 12 °F (1971)
Degree Days  
Heating Degree Days 37 28  
Month to date heating degree days 679 637  
Since 1 July heating degree days 2809 2687  
Cooling Degree Days 0    
Month to date cooling degree days 0  
Year to date cooling degree days 7  
Moisture  
Dew Point 16 °F    
Average Humidity 0    
Maximum Humidity 0    
Minimum Humidity 0    
Precipitation  
Precipitation 0.00 in 0.32 in 2.30 in (1993)
Month to date precipitation 7.47 8.06  
Year to date precipitation 102.58 98.97  
Snow  
Snow 0.00 in 0.30 in 4.70 in (1948)
Month to date snowfall 10.9 5.7  
Since 1 July snowfall 10.9 9.3  
Snow Depth 3.00 in    
Sea Level Pressure  
Sea Level Pressure 29.78 in    
Wind  
Wind Speed 3 mph (ENE)    
Max Wind Speed 12 mph    
Max Gust Speed 20 mph    
Visibility 10 miles    
Events      
T = Trace of Precipitation, MM = Missing Value Source: NWS Daily Summary

Daily Weather History Graph

Daily Weather History Graph

Search for Another Location

Airport or City:

Trip Planner

Search our weather history database for the weather conditions in past years. The results will help you decide how hot, cold, wet, or windy it might be!

Date:

Astronomy

Dec. 23, 2012 Rise Set
Actual Time 8:10 AM AKST 3:20 PM AKST
Civil Twilight 7:25 AM AKST 4:06 PM AKST
Nautical Twilight 6:37 AM AKST 4:54 PM AKST
Astronomical Twilight 5:52 AM AKST 5:38 PM AKST
Moon 12:35 PM AKST (12/23) 3:37 AM AKST (12/23)
Length of Visible Light 8h 41m
Length of Day
7h 10m
Waxing Gibbous, 82% of the Moon is Illuminated
Dec 23
Waxing Gibbous
Dec 28
Full
Jan 4
Last Quarter
Jan 11
New
Jan 18
First Quarter

Hourly Weather History & Observations

Time (AKST) Temp. Windchill Dew Point Humidity Pressure Visibility Wind Dir Wind Speed Gust Speed Precip Events Conditions
12:53 AM 28.9 °F 25.2 °F 15.1 °F 56% 29.64 in 10.0 mi Variable 3.5 mph - N/A   Clear
1:53 AM 26.1 °F - 17.1 °F 69% 29.65 in 10.0 mi Calm Calm - N/A   Clear
3:53 AM 24.1 °F - 21.0 °F 88% 29.67 in 10.0 mi Calm Calm - N/A   Clear
4:53 AM 23.0 °F 18.4 °F 19.9 °F 88% 29.68 in 10.0 mi NE 3.5 mph - N/A   Scattered Clouds
5:53 AM 25.0 °F - 19.0 °F 78% 29.69 in 10.0 mi Calm Calm - N/A   Scattered Clouds
6:53 AM 30.0 °F - 18.0 °F 61% 29.70 in 10.0 mi Calm Calm - N/A   Scattered Clouds
7:53 AM 30.0 °F 26.5 °F 17.1 °F 59% 29.72 in 10.0 mi Variable 3.5 mph - N/A   Scattered Clouds
8:53 AM 28.9 °F - 16.0 °F 58% 29.74 in 10.0 mi Calm Calm - N/A   Clear
9:53 AM 32.0 °F 28.7 °F 16.0 °F 52% 29.75 in 10.0 mi Variable 3.5 mph - N/A   Mostly Cloudy
10:53 AM 32.0 °F 26.4 °F 16.0 °F 52% 29.75 in 10.0 mi ENE 5.8 mph - N/A   Mostly Cloudy
11:53 AM 32.0 °F 27.5 °F 16.0 °F 52% 29.76 in 10.0 mi Variable 4.6 mph - N/A   Mostly Cloudy
12:53 PM 32.0 °F 28.7 °F 16.0 °F 52% 29.77 in 10.0 mi Variable 3.5 mph - N/A   Overcast
1:53 PM 32.0 °F 26.4 °F 15.1 °F 50% 29.78 in 10.0 mi ENE 5.8 mph 16.1 mph N/A   Overcast
2:53 PM 30.9 °F 24.3 °F 14.0 °F 50% 29.79 in 10.0 mi Variable 6.9 mph - N/A   Overcast
3:53 PM 30.9 °F 27.5 °F 14.0 °F 50% 29.81 in 10.0 mi Variable 3.5 mph - N/A   Mostly Cloudy
4:53 PM 30.0 °F 25.2 °F 15.1 °F 54% 29.82 in 10.0 mi Variable 4.6 mph - N/A   Mostly Cloudy
5:53 PM 27.0 °F - 14.0 °F 58% 29.84 in 10.0 mi Calm Calm - N/A   Clear
6:53 PM 28.9 °F 25.2 °F 15.1 °F 56% 29.85 in 10.0 mi Variable 3.5 mph - N/A   Mostly Cloudy
7:53 PM 28.9 °F 21.9 °F 12.0 °F 49% 29.87 in 10.0 mi East 6.9 mph - N/A   Partly Cloudy
8:53 PM 28.9 °F 23.9 °F 14.0 °F 54% 29.90 in 10.0 mi Variable 4.6 mph - N/A   Overcast
9:53 PM 28.9 °F 23.9 °F 15.1 °F 56% 29.91 in 10.0 mi Variable 4.6 mph - N/A   Overcast
10:53 PM 28.9 °F 25.2 °F 15.1 °F 56% 29.93 in 10.0 mi East 3.5 mph - N/A   Overcast
11:53 PM 30.0 °F 25.2 °F 15.1 °F 54% 29.96 in 10.0 mi Variable 4.6 mph - N/A   Overcast